{"data":{"norad_id":57734,"intl_designator":"2023-131C","name":"STARLINK-30365","alt_names":[],"object_type":"PAYLOAD","status":"ACTIVE","operator":null,"country":"US","launch_date":"2023-09-01","launch_site_code":"AFETR","launch_vehicle":null,"mission":null,"orbit_class":"UNKNOWN","rcs_meters":null,"size_class":null,"mass_kg":null,"dimensions":null,"purposes":["comms"],"wikipedia_slug":null,"has_3d_model":false,"image_url":null,"decayed_at":null,"tle_current":{"epoch":"2026-09-20T09:35:54.232800Z","epoch_age_seconds":139951,"freshness":"FRESH","line1":"1 57734U 23131C   26263.39993325  .00000346  00000+0  22102-4 0  9991","line2":"2 57734  43.0025 152.9077 0001230 272.9867  87.0843 15.27577785169695","mean_motion":15.27577785,"eccentricity":0.000123,"inclination_deg":43.0025,"raan_deg":152.9077,"arg_perigee_deg":272.9867,"mean_anomaly_deg":87.0843,"bstar":2.2102e-5,"rev_number":16969,"period_min":94.266885401191,"perigee_km":482.2118018489,"apogee_km":483.89965526012,"semimajor_km":6861.1927285545,"source":"CELESTRAK","updated_at":"2026-09-21T09:00:33.678460Z"}}}